Previsão horária em Ploschevo

Hoje, 8 Março, Segunda-feira

Tempo Temperatura Precipitação Vento Pressão Humidade
00:00 -10°C° 0 mm 5 m/s 731 mmHg 85%
01:00 -10°C° 0 mm 5 m/s 731 mmHg 86%
02:00 -11°C° 0 mm 5 m/s 731 mmHg 87%
03:00 -11°C° 0 mm 5 m/s 732 mmHg 89%
04:00 -11°C° 0 mm 5 m/s 732 mmHg 91%
05:00 -11°C° 0 mm 5 m/s 732 mmHg 92%
06:00 -10°C° 0 mm 4 m/s 732 mmHg 92%
07:00 -10°C° 0 mm 4 m/s 733 mmHg 92%
08:00 -9°C° 0 mm 4 m/s 733 mmHg 92%
09:00 -9°C° 0 mm 4 m/s 734 mmHg 90%
10:00 -9°C° 0 mm 4 m/s 735 mmHg 87%
11:00 -8°C° 0 mm 4 m/s 735 mmHg 84%
12:00 -8°C° 0 mm 4 m/s 735 mmHg 84%
13:00 -8°C° 0 mm 4 m/s 736 mmHg 83%
14:00 -8°C° 0 mm 4 m/s 736 mmHg 83%
15:00 -8°C° 0 mm 4 m/s 737 mmHg 85%
16:00 -9°C° 0 mm 4 m/s 737 mmHg 87%
17:00 -8°C° 0 mm 3 m/s 738 mmHg 89%
18:00 -9°C° 0 mm 3 m/s 738 mmHg 89%
19:00 -12°C° 0 mm 3 m/s 739 mmHg 90%
20:00 -13°C° 0 mm 3 m/s 739 mmHg 91%
21:00 -14°C° 0 mm 3 m/s 740 mmHg 92%
22:00 -14°C° 0 mm 3 m/s 740 mmHg 93%
23:00 -15°C° 0 mm 3 m/s 740 mmHg 94%

Amanhã, 9 Março, Terça-feira

Tempo Temperatura Precipitação Vento Pressão Humidade
00:00 -16°C° 0 mm 3 m/s 741 mmHg 94%
01:00 -16°C° 0 mm 3 m/s 741 mmHg 94%
02:00 -16°C° 0 mm 2 m/s 742 mmHg 95%
03:00 -16°C° 0 mm 2 m/s 742 mmHg 95%
04:00 -17°C° 0 mm 3 m/s 742 mmHg 95%
05:00 -18°C° 0 mm 3 m/s 742 mmHg 95%
06:00 -17°C° 0 mm 3 m/s 743 mmHg 95%
07:00 -16°C° 0 mm 2 m/s 743 mmHg 94%
08:00 -15°C° 0 mm 2 m/s 744 mmHg 93%
09:00 -15°C° 0 mm 3 m/s 744 mmHg 90%
10:00 -13°C° 0 mm 3 m/s 744 mmHg 87%
11:00 -12°C° 0 mm 3 m/s 745 mmHg 83%
12:00 -10°C° 0 mm 3 m/s 745 mmHg 82%
13:00 -10°C° 0 mm 3 m/s 745 mmHg 81%
14:00 -9°C° 0 mm 3 m/s 745 mmHg 79%
15:00 -10°C° 0 mm 3 m/s 745 mmHg 82%
16:00 -9°C° 0 mm 2 m/s 745 mmHg 84%
17:00 -10°C° 0 mm 2 m/s 745 mmHg 86%
18:00 -12°C° 0 mm 2 m/s 746 mmHg 86%
19:00 -11°C° 0 mm 1 m/s 746 mmHg 86%
20:00 -12°C° 0 mm 1 m/s 747 mmHg 87%
21:00 -12°C° 0 mm 1 m/s 747 mmHg 87%
22:00 -12°C° 0 mm 1 m/s 747 mmHg 87%
23:00 -12°C° 0 mm 1 m/s 747 mmHg 88%

Depois de amanhã, 10 Março, Quarta-feira

Tempo Temperatura Precipitação Vento Pressão Humidade
00:00 -13°C° 0 mm 2 m/s 747 mmHg 89%
01:00 -13°C° 0 mm 2 m/s 747 mmHg 90%
02:00 -13°C° 0 mm 3 m/s 747 mmHg 91%
03:00 -13°C° 0 mm 3 m/s 747 mmHg 91%
04:00 -13°C° 0 mm 3 m/s 746 mmHg 91%
05:00 -12°C° 0 mm 4 m/s 746 mmHg 91%
06:00 -11°C° 0.1 mm 4 m/s 747 mmHg 92%
07:00 -11°C° 0.1 mm 4 m/s 747 mmHg 93%
08:00 -10°C° 0.1 mm 4 m/s 747 mmHg 93%
09:00 -9°C° 0.2 mm 4 m/s 747 mmHg 93%
10:00 -8°C° 0.2 mm 4 m/s 747 mmHg 93%
11:00 -8°C° 0.2 mm 4 m/s 747 mmHg 92%
12:00 -7°C° 0.3 mm 3 m/s 748 mmHg 93%
13:00 -7°C° 0.3 mm 3 m/s 748 mmHg 93%
14:00 -7°C° 0.3 mm 3 m/s 748 mmHg 93%
15:00 -8°C° 0.2 mm 3 m/s 748 mmHg 93%
16:00 -9°C° 0.2 mm 3 m/s 748 mmHg 93%
17:00 -11°C° 0.2 mm 4 m/s 748 mmHg 93%
18:00 -12°C° 0.1 mm 4 m/s 748 mmHg 94%
19:00 -14°C° 0.1 mm 4 m/s 748 mmHg 94%
20:00 -15°C° 0.1 mm 4 m/s 749 mmHg 94%
21:00 -16°C° 0 mm 4 m/s 749 mmHg 94%
22:00 -17°C° 0 mm 4 m/s 749 mmHg 94%
23:00 -17°C° 0 mm 4 m/s 749 mmHg 94%

11 Março, Quinta-feira

Tempo Temperatura Precipitação Vento Pressão Humidade
00:00 -18°C° 0 mm 4 m/s 750 mmHg 94%
01:00 -18°C° 0 mm 3 m/s 750 mmHg 95%
02:00 -19°C° 0 mm 3 m/s 750 mmHg 95%
03:00 -19°C° 0 mm 3 m/s 750 mmHg 95%
04:00 -19°C° 0 mm 3 m/s 750 mmHg 95%
05:00 -19°C° 0 mm 3 m/s 750 mmHg 95%
06:00 -20°C° 0 mm 4 m/s 750 mmHg 95%
07:00 -19°C° 0 mm 4 m/s 750 mmHg 95%
08:00 -19°C° 0 mm 4 m/s 750 mmHg 95%
09:00 -18°C° 0 mm 4 m/s 750 mmHg 94%
10:00 -16°C° 0 mm 4 m/s 750 mmHg 94%
11:00 -15°C° 0 mm 4 m/s 750 mmHg 94%
12:00 -14°C° 0 mm 4 m/s 749 mmHg 93%
13:00 -12°C° 0 mm 4 m/s 749 mmHg 93%
14:00 -11°C° 0 mm 4 m/s 749 mmHg 92%
15:00 -11°C° 0 mm 4 m/s 749 mmHg 92%
16:00 -11°C° 0 mm 4 m/s 748 mmHg 92%
17:00 -11°C° 0 mm 4 m/s 748 mmHg 92%
18:00 -12°C° 0 mm 5 m/s 748 mmHg 92%
19:00 -12°C° 0 mm 5 m/s 747 mmHg 92%
20:00 -13°C° 0 mm 5 m/s 747 mmHg 92%
21:00 -14°C° 0 mm 6 m/s 747 mmHg 92%
22:00 -14°C° 0 mm 6 m/s 746 mmHg 92%
23:00 -15°C° 0 mm 6 m/s 746 mmHg 92%

12 Março, Sexta-feira

Tempo Temperatura Precipitação Vento Pressão Humidade
00:00 -15°C° 0 mm 7 m/s 745 mmHg 91%
01:00 -14°C° 0 mm 7 m/s 744 mmHg 90%
02:00 -14°C° 0 mm 7 m/s 743 mmHg 89%
03:00 -15°C° 0 mm 8 m/s 742 mmHg 87%
04:00 -13°C° 0 mm 8 m/s 741 mmHg 84%
05:00 -14°C° 0 mm 9 m/s 739 mmHg 82%
06:00 -12°C° 0.6 mm 9 m/s 738 mmHg 86%
07:00 -12°C° 0.6 mm 10 m/s 737 mmHg 89%
08:00 -11°C° 0.6 mm 11 m/s 736 mmHg 93%
09:00 -11°C° 1.1 mm 11 m/s 735 mmHg 93%
10:00 -9°C° 1.1 mm 11 m/s 735 mmHg 93%
11:00 -9°C° 1.1 mm 11 m/s 734 mmHg 93%
12:00 -8°C° 0.8 mm 11 m/s 733 mmHg 94%
13:00 -7°C° 0.8 mm 10 m/s 733 mmHg 95%
14:00 -5°C° 0.8 mm 9 m/s 732 mmHg 96%
15:00 -5°C° 0.8 mm 8 m/s 732 mmHg 96%
16:00 -3°C° 0.8 mm 7 m/s 731 mmHg 97%
17:00 -3°C° 0.8 mm 6 m/s 731 mmHg 98%
18:00 -2°C° 0.3 mm 5 m/s 731 mmHg 98%
19:00 -1°C° 0.3 mm 5 m/s 731 mmHg 98%
20:00 -1°C° 0.3 mm 5 m/s 731 mmHg 98%
21:00 -1°C° 0.5 mm 5 m/s 731 mmHg 98%
22:00 -1°C° 0.5 mm 5 m/s 731 mmHg 98%
23:00 -2°C° 0.5 mm 5 m/s 732 mmHg 98%

13 Março, Sábado

Tempo Temperatura Precipitação Vento Pressão Humidade
00:00 -2°C° 0.1 mm 5 m/s 732 mmHg 96%
01:00 -2°C° 0.1 mm 4 m/s 732 mmHg 95%
02:00 -2°C° 0.1 mm 4 m/s 733 mmHg 93%
03:00 -2°C° 0 mm 4 m/s 733 mmHg 93%
04:00 -2°C° 0 mm 5 m/s 733 mmHg 93%
05:00 -2°C° 0 mm 5 m/s 733 mmHg 92%
06:00 -3°C° 0.2 mm 6 m/s 733 mmHg 94%
07:00 -3°C° 0.2 mm 6 m/s 734 mmHg 95%
08:00 -3°C° 0.2 mm 7 m/s 734 mmHg 97%
09:00 -3°C° 0.3 mm 7 m/s 734 mmHg 97%
10:00 -3°C° 0.3 mm 7 m/s 734 mmHg 98%
11:00 -3°C° 0.3 mm 7 m/s 735 mmHg 98%
12:00 -2°C° 0.1 mm 7 m/s 735 mmHg 98%
13:00 -2°C° 0.1 mm 7 m/s 736 mmHg 98%
14:00 -2°C° 0.1 mm 6 m/s 736 mmHg 98%
15:00 -2°C° 0 mm 6 m/s 736 mmHg 97%
16:00 -1°C° 0 mm 5 m/s 737 mmHg 96%
17:00 -1°C° 0 mm 5 m/s 737 mmHg 95%
18:00 -1°C° 0 mm 5 m/s 738 mmHg 94%
19:00 -1°C° 0 mm 4 m/s 738 mmHg 94%
20:00 -1°C° 0 mm 4 m/s 738 mmHg 93%
21:00 -1°C° 0 mm 4 m/s 738 mmHg 94%
22:00 -1°C° 0 mm 3 m/s 739 mmHg 94%
23:00 -1°C° 0 mm 3 m/s 739 mmHg 95%
Mostrar mais

Necessitamos do seu Consentimento

A Meteoprog e os seus Fornecedores de Serviços podem armazenar e aceder a dados pessoais como cookies, identificadores do dispositivo ou outras tecnologias semelhantes existentes no seu dispositivo e processar estes dados para personalizar conteúdos e anúncios, assim como funcionalidades nas redes sociais e análise de tráfego.

  • Armazenar e/ou aceder a informações no seu dispositivo

    Os cookies, identificadores do dispositivo ou outras informações podem ser armazenados ou acedidos no seu dispositivo, para os fins acima indicados.

  • Anúncios e conteúdos personalizados, medição de anúncios e conteúdos, dados sobre o público-alvo e desenvolvimento de produtos

    Os anúncios e os conteúdos podem ser personalizados com base num perfil. Podem ser adicionados dados adicionais para uma maior personalização dos anúncios e dos conteúdos. A eficácia dos anúncios e dos conteúdos pode ser medida. Podem ser obtidas informações sobre o público que visualizou os anúncios e os conteúdos. Estes dados podem ser usados para desenvolver ou melhorar sistemas, softwares ou a experiência do utilizador.

Ao clicar em "Eu concordo”, permitirá o uso de cookies, identificadores do dispositivo e web beacons mencionados ou outras tecnologias semelhantes. As configurações do navegador do seu dispositivo podem ser alteradas.

Para certos fins, podem ser invocados interesses legítimos ao invés de consentimento. Pode ler mais informação sobre este assunto na nossa Política de Privacidade e Cookies.